CDT,Max TemperatureF,Mean TemperatureF,Min TemperatureF,Max Dew PointF,MeanDew PointF,Min DewpointF,Max Humidity, Mean Humidity, Min Humidity, Max Sea Level PressureIn, Mean Sea Level PressureIn, Min Sea Level PressureIn, Max VisibilityMiles, Mean VisibilityMiles, Min VisibilityMiles, Max Wind SpeedMPH, Mean Wind SpeedMPH, Max Gust SpeedMPH,PrecipitationIn, CloudCover, Events, WindDirDegrees
2013-3-1,30,24,19,21,19,12,80,70,64,30.34,30.27,30.21,10,10,10,21,12,26,0.00,7,,351
2013-3-2,35,24,12,21,16,9,86,71,56,30.36,30.28,30.14,10,10,8,10,5,,0.00,0,,214
2013-3-3,46,36,26,34,27,18,75,67,57,30.14,29.87,29.63,10,10,10,15,10,,0.00,0,,163
2013-3-4,42,37,32,34,30,25,81,73,61,30.06,29.75,29.58,10,10,7,26,12,32,0.04,4,,18
2013-3-5,39,32,26,30,18,12,81,55,45,30.39,30.28,30.08,10,10,10,30,19,38,0.00,0,,329
2013-3-6,44,32,19,23,18,12,80,60,37,30.43,30.33,30.18,10,10,10,16,6,,0.00,0,,119
2013-3-7,62,46,30,30,25,21,69,49,27,30.18,30.09,30.02,10,10,10,24,15,30,0.00,0,,147
2013-3-8,60,51,42,45,36,27,71,58,46,30.09,30.01,29.90,10,10,10,23,16,31,0.00,4,,155
2013-3-9,55,52,46,52,47,41,88,82,62,29.90,29.70,29.57,10,9,2,22,16,31,0.74,6,Thunderstorm,168
2013-3-10,44,35,26,39,24,18,87,76,69,30.02,29.85,29.58,10,10,5,33,21,43,0.00,8,,339
2013-3-11,44,32,21,21,17,12,80,55,31,30.02,29.99,29.95,10,10,10,20,14,25,0.00,1,,311
2013-3-12,48,39,30,28,22,16,75,51,34,30.37,30.23,30.03,10,10,10,22,9,31,0.00,2,,338
2013-3-13,55,40,24,28,22,14,74,52,31,30.46,30.36,30.26,10,10,9,18,7,23,0.00,1,,147
2013-3-14,73,55,37,41,33,25,70,48,29,30.25,30.16,30.10,10,10,10,21,12,25,0.00,0,,216
2013-3-15,82,63,44,46,41,34,71,50,26,30.10,29.87,29.72,10,10,10,21,10,26,0.00,0,,203
2013-3-16,57,46,33,45,32,25,76,63,53,30.01,29.92,29.74,10,10,6,25,15,31,0.00,0,,32
2013-3-17,39,36,33,30,27,23,81,73,65,30.02,29.87,29.71,10,9,1,20,12,26,0.00,8,,77
2013-3-18,55,44,32,34,26,16,87,57,21,30.05,29.92,29.76,10,8,1,23,10,31,0.00,3,,344
2013-3-19,50,37,24,27,21,16,80,53,32,30.28,30.17,30.05,10,10,9,16,8,21,0.00,2,,92
2013-3-20,44,35,26,28,18,12,86,52,31,30.42,30.28,30.03,10,10,10,17,8,22,0.00,2,,41
2013-3-21,48,40,32,27,17,12,80,48,29,30.03,29.86,29.75,10,10,10,29,16,36,0.00,3,,114
2013-3-22,46,37,28,30,27,25,93,74,53,29.97,29.92,29.86,10,7,0,14,8,16,0.00,8,,51
2013-3-23,33,32,30,28,27,25,87,84,75,29.97,29.91,29.84,10,4,1,26,11,33,0.06,8,,47
2013-3-24,32,28,23,25,19,16,86,70,55,30.15,30.05,29.92,10,7,1,32,23,40,0.02,3,,334
2013-3-25,33,27,21,18,15,12,74,64,48,30.37,30.28,30.16,10,10,8,26,15,30,0.00,4,,323
2013-3-26,44,30,15,23,17,10,86,61,39,30.42,30.33,30.21,10,10,7,15,5,18,0.00,0,,208
2013-3-27,57,44,30,32,26,21,70,50,35,30.21,30.14,30.09,10,10,10,23,13,29,0.00,2,,146
2013-3-28,66,49,32,43,35,25,80,60,37,30.18,30.14,30.08,10,10,5,12,7,16,0.00,1,,96
2013-3-29,69,56,42,52,46,37,87,68,49,30.17,30.11,30.05,10,10,4,15,8,20,0.00,2,,102
2013-3-30,69,58,48,55,49,43,88,74,52,30.05,29.96,29.90,10,9,5,23,9,31,0.44,4,Thunderstorm,205
2013-3-31,62,52,41,46,39,32,87,63,37,30.07,30.02,29.97,10,10,0,24,10,31,0.05,1,,334